CAPE
1628 2030 1782 1856 1764 644 1846 1772 2218 1742 1587 1066 652 479 256 407 204 173 269 1136 1265 1174 1410 1424 1456 1621 1867 2136 2370 2638 3117 3523 3909 4073 3751 3543 3252 3197 2844 3186 2709 2599 2609
2949 2082 2555 2363 1082 1898 1330 1993 2811 2963 1848 693 540 416 439 474 796 436 344 761 1518 1630 1652 1533 1636 1791 1963 2166 2461 2947 3448 3833 4024 3911 3514 3220 3159 2976 2999 2957 3152 2540 1991
2746 3142 2580 2419 2495 2569 2275 1833 2351 2330 1139 835 1074 906 730 615 692 976 632 504 782 1971 2308 2338 2320 2512 2515 2307 2615 3130 3443 3798 3549 3639 3291 3208 2988 3141 3058 2872 2866 2722 2305
3047 3303 2412 1789 1985 3143 2678 2136 2214 1948 1410 837 1303 1019 950 969 1131 1255 1396 841 793 682 1880 2558 2588 2724 2844 2692 2913 3165 3478 3532 3116 3210 3238 3067 2909 3086 2802 3101 2948 2789 2373
2711 3244 2088 2765 3312 2713 1971 2504 1796 1796 1456 971 702 1179 1176 1263 1586 687 1310 1283 1156 1015 969 1502 2337 2469 2622 2475 3008 3291 3362 3082 3013 2847 3095 2568 2517 2646 2879 3011 2831 2868 2551
2543 2889 1430 3168 3772 1636 841 995 4176 2025 2481 1583 405 498 767 1259 1253 1469 1027 1205 1592 1289 1339 1155 1291 1786 2281 2855 3137 3132 2901 2793 2515 2532 2696 2652 2264 2195 2356 2534 2498 2622 2704
3186 3151 3263 3365 1048 535 836 858 2883 3086 2567 1967 2316 1405 1014 1081 1251 1218 984 1131 995 963 880 2004 2270 2802 2062 2564 2733 2694 2696 2480 2188 2720 2721 2152 2041 2073 2181 2137 2459 2118 2561
3087 3183 2754 2408 433 6 754 1190 244 1250 1262 2019 2600 1241 1474 1137 203 247 242 412 482 569 250 1131 1339 3158 3345 3032 2331 2478 2277 2026 2057 1944 1971 2155 2019 2135 2252 2141 2135 2280 2198
2742 2439 3202 2924 1156 1214 2271 1539 69 1329 611 610 1876 2188 1079 141 119 80 133 244 163 305 263 645 1385 228 2992 2852 3515 2817 2061 902 698 845 1000 1680 1934 1962 2144 2336 2226 2515 1899
2758 2498 3075 2931 3485 2692 728 2862 2371 1385 959 541 1206 695 838 83 17 44 100 45 30 100 0 423 639 1135 1477 2484 2681 1666 617 175 265 643 884 1149 1589 1983 2324 2424 2539 2740 2151
2668 1950 3067 2693 3344 3068 2826 2864 3144 3298 2735 1903 1093 204 8 843 603 514 239 191 152 44 80 215 593 1922 1898 1816 1508 539 345 458 366 434 417 681 1166 1728 2152 2194 2611 2841 2488
2241 2811 2886 3699 3592 3265 3356 2835 3651 3801 3921 3572 3081 3167 2621 1986 994 902 927 372 338 279 180 397 636 339 2214 2449 895 1129 814 395 241 187 152 287 736 1015 1301 1468 1654 2265 2489
2452 2482 3132 3219 3239 3388 3429 3341 3602 3644 3284 3802 3370 3210 2657 2167 1886 1916 1938 1484 990 813 399 160 440 57 340 1621 1434 1431 680 384 170 178 195 257 147 254 390 403 373 392 522
646 887 2616 3321 3005 3063 3313 3364 3135 2795 2443 2933 2999 3448 3103 2049 1018 1156 1907 1025 441 557 793 1185 1077 545 1330 1406 1809 1904 776 615 554 20 117 56 6 123 321 424 349 266 329
2142 2165 2572 2973 2967 3105 3054 3022 2784 2690 2707 2965 3001 3114 3063 2069 1405 1643 972 1412 1534 763 731 664 774 1295 1623 1319 1158 1783 2178 925 490 339 203 0 0 0 31 261 278 163 97
3002 2824 2660 2536 2737 2858 3084 3036 2613 2301 2539 2495 1961 2307 2452 2141 2121 1510 1492 166 671 1929 767 1004 1840 2307 1720 1263 1001 1863 1707 619 264 259 219 25 0 0 0 0 51 117 36
2689 2471 2643 2984 2721 2763 2592 2547 2910 2538 2441 2242 2518 2408 1971 2314 1703 1461 1498 1762 1815 1933 1590 2109 1250 1838 1271 574 797 929 1549 884 411 204 264 0 0 0 0 0 0 0 0
2793 3045 3184 3167 2829 2408 2597 2564 2190 1957 2282 2351 2424 2160 2082 1373 1951 2529 1807 1947 2228 1724 1583 1413 1554 1280 969 157 46 25 469 916 323 251 146 65 0 0 0 0 0 0 0
2351 2205 2670 2046 1663 1784 1479 2342 2167 2220 2170 1703 1732 1478 1519 1579 1411 1851 1735 1642 1269 1676 1470 1289 697 684 1076 382 199 89 233 357 327 221 143 93 33 7 0 0 0 0 0
1911 2043 2504 2049 1633 1786 1958 1853 1813 2093 1549 1596 1841 1523 1292 1301 1195 1433 1452 1361 1057 1027 251 90 748 710 734 632 280 136 109 142 32 99 52 105 90 41 0 0 0 0 0
2238 2778 2356 2432 2130 1510 848 538 2094 1744 1345 1355 1466 1565 1657 1049 757 742 943 1723 1233 1127 889 290 719 298 573 599 238 219 259 338 232 160 106 79 54 50 0 0 0 0 0
2570 1996 2072 1769 1715 604 326 227 564 420 1043 1526 1537 1469 1497 587 407 97 87 49 78 1227 1142 1536 918 656 690 384 433 224 160 170 416 328 133 78 35 94 22 0 0 0 0
2103 1623 1440 1206 529 282 218 186 129 87 94 1104 1422 1497 1482 1100 163 381 57 28 20 4 0 0 278 474 253 83 118 240 511 456 780 318 468 496 91 29 44 79 0 0 0
1630 1530 791 473 171 154 157 117 18 5 20 352 136 107 172 198 152 194 200 135 41 0 0 0 111 25 3 0 0 1 17 684 1208 144 87 122 37 34 19 43 0 0 0
749 667 492 141 95 46 60 63 11 12 79 56 42 33 31 38 32 38 39 38 15 30 0 0 0 9 2 0 0 0 2 14 212 250 87 56 79 43 15 0 0 0 0
257 160 116 69 42 30 17 17 1 9 3 3 11 20 10 22 29 11 3 18 38 68 43 56 46 27 0 0 2 0 0 0 7 0 30 61 39 2 2 0 0 0 0
CIN
-24 -6 -16 -22 -69 -65 -33 -38 -29 -23 -29 -15 -10 -37 -91 -67 -180 -275 -348 -193 -185 -178 -147 -148 -146 -132 -108 -83 -74 -67 -42 -19 -3 -0 -12 -18 -25 -24 -32 -14 -20 -16 -16
-18 -18 -31 -31 -41 -60 -30 -18 -21 -32 -22 -32 -45 -82 -91 -77 -80 -199 -274 -281 -172 -156 -152 -154 -142 -133 -122 -106 -99 -77 -49 -25 -15 -18 -29 -30 -24 -25 -19 -20 -13 -20 -27
-4 -11 -27 -14 -23 -21 -16 -20 -29 -36 -43 -25 -28 -34 -64 -99 -90 -76 -146 -199 -257 -165 -144 -133 -136 -122 -113 -122 -108 -76 -62 -46 -43 -36 -40 -30 -26 -19 -24 -26 -21 -13 -26
-10 -19 -18 -41 -23 -26 -39 -46 -50 -66 -43 -68 -54 -54 -56 -57 -56 -45 -31 -109 -172 -90 -185 -160 -153 -136 -123 -121 -102 -83 -63 -56 -65 -54 -41 -34 -35 -26 -41 -20 -19 -11 -25
-6 -11 -43 -25 -28 -32 -50 -47 -55 -29 -22 -45 -45 -46 -36 -58 -55 -53 -28 -32 -39 -87 -83 -193 -198 -180 -142 -134 -117 -93 -74 -76 -69 -73 -54 -62 -56 -46 -35 -27 -28 -14 -14
-8 -7 -152 -24 -13 -65 -73 -203 -44 -45 -29 -34 -10 -33 -64 -65 -77 -54 -49 -40 -59 -74 -63 -135 -97 -148 -201 -126 -110 -90 -93 -82 -83 -81 -72 -70 -79 -86 -67 -49 -43 -28 -5
-4 -6 -29 -11 -14 -2 -67 -100 -64 -36 -59 -48 -38 -58 -51 -22 -21 -35 -23 -44 -44 -63 -29 -68 -117 -121 -197 -175 -125 -108 -97 -83 -85 -60 -66 -107 -99 -100 -95 -88 -53 -58 -20
-5 -7 -33 -34 -93 -119 -4 -8 -252 -85 -118 -93 -32 -161 -30 -49 -26 -19 -44 -13 -9 -23 -82 -54 -101 -31 -38 -85 -39 -132 -110 -107 -104 -106 -106 -105 -115 -97 -91 -98 -96 -61 -49
-4 -10 -7 -19 -35 -22 -86 -17 -35 -44 -9 -12 -101 -59 -53 -18 -20 -26 -42 -26 -22 -23 -26 -45 -23 -259 -38 -31 -88 -104 -114 -215 -234 -215 -189 -131 -131 -128 -111 -87 -88 -58 -72
-5 -6 -2 -1 -12 -32 -65 -41 -39 -14 -21 -63 -161 -20 -41 -26 -23 -35 -426 -346 -565 -349 -0 -21 -13 -268 -181 -43 -115 -165 -214 -294 -291 -238 -203 -164 -155 -139 -110 -100 -85 -64 -70
-5 -20 -7 -0 -2 -15 -16 -20 -19 -30 -44 -23 -84 -12 -10 -34 -5 -60 -73 -23 -22 -126 -143 -68 -19 -77 -67 -53 -138 -7 -66 -87 -88 -258 -257 -206 -168 -134 -113 -109 -77 -54 -65
-14 -18 -3 -1 -1 -1 -5 -6 -7 -4 -10 -13 -40 -35 -28 -27 -62 -90 -138 -21 -14 -120 -79 -67 -4 -65 -48 -92 -50 -176 -88 -151 -45 -52 -45 -213 -197 -175 -159 -149 -116 -54 -33
-9 -15 -8 -7 -4 -3 -2 -4 -1 -1 -8 -3 -4 -26 -37 -45 -50 -25 -28 -45 -49 -69 -187 -315 -236 -132 -79 -117 -121 -153 -201 -33 -59 -39 -21 -108 -111 -80 -77 -79 -94 -155 -213
-96 -99 -20 -2 -4 -4 -4 -5 -4 -7 -21 -12 -4 -5 -13 -63 -89 -58 -26 -34 -51 -61 -72 -50 -191 -217 -96 -137 -79 -117 -53 -9 -2 -12 -125 -77 -10 -79 -62 -52 -43 -35 -33
-9 -21 -6 -2 -3 -4 -4 -4 -3 -6 -12 -6 -4 -12 -12 -43 -67 -48 -62 -44 -22 -22 -41 -75 -23 -56 -85 -93 -65 -26 -72 -2 -5 -22 -30 -0 -0 -0 -60 -48 -38 -44 -119
-5 -5 -3 -8 -4 -4 -3 -4 -5 -10 -20 -11 -9 -19 -20 -17 -28 -52 -63 -72 -108 -25 -30 -71 -54 -44 -47 -25 -74 -27 -56 -7 -36 -23 -12 -14 -0 -0 -0 -0 -59 -50 -48
-4 -10 -4 -1 -3 -3 -4 -5 -4 -21 -9 -7 -8 -17 -11 -10 -19 -38 -41 -25 -22 -36 -29 -34 -59 -52 -85 -11 -23 -23 -30 -8 -18 -22 -15 -0 -0 -0 -0 -0 -0 -0 -0
-7 -1 -1 -1 -1 -4 -4 -2 -7 -5 -9 -4 -4 -9 -13 -2 -15 -14 -23 -21 -10 -26 -21 -34 -58 -82 -86 -75 -39 -239 -25 -53 -13 -34 -20 -20 -0 -0 -0 -0 -0 -0 -0
-16 -11 -4 -14 -22 -15 -20 -4 -4 -4 -6 -17 -12 -14 -16 -13 -12 -19 -18 -17 -31 -24 -35 -39 -76 -84 -40 -47 -118 -100 -27 -6 -6 -7 -20 -27 -19 -55 -0 -0 -0 -0 -0
-15 -13 -5 -19 -24 -15 -6 -9 -8 -5 -15 -5 -7 -15 -23 -22 -23 -23 -19 -26 -36 -39 -56 -125 -38 -43 -48 -48 -80 -78 -86 -88 -75 -34 -60 -9 -32 -43 -0 -0 -0 -0 -0
-5 -3 -7 -3 -6 -17 -4 -14 -4 -1 -7 -9 -8 -11 -17 -23 -19 -23 -22 -10 -14 -12 -14 -54 -10 -38 -24 -37 -55 -70 -65 -53 -12 -9 -33 -9 -46 -33 -0 -0 -0 -0 -0
-2 -10 -3 -6 -12 -2 -5 -13 -13 -16 -14 -2 -3 -6 -4 -7 -20 -31 -28 -56 -56 -6 -1 -0 -3 -6 -9 -41 -55 -90 -70 -42 -8 -0 -3 -7 -21 -24 -26 -0 -0 -0 -0
-8 -12 -11 -9 -21 -26 -31 -20 -21 -15 -32 -3 -0 -1 -1 -6 -19 -17 -34 -36 -29 -19 -0 -0 -19 -18 -28 -35 -41 -79 -25 -36 -9 -28 -26 -7 -2 -1 -8 -6 -0 -0 -0
-3 -2 -11 -19 -28 -22 -17 -16 -12 -25 -65 -4 -37 -54 -50 -26 -41 -19 -13 -24 -64 -7 -0 -0 -36 -53 -33 -3 -0 -31 -124 -13 -6 -11 -12 -31 -17 -8 -9 -3 -0 -0 -0
-9 -7 -2 -0 -1 -6 -8 -9 -2 -22 -8 -2 -8 -9 -9 -13 -14 -15 -10 -13 -0 -0 -14 -0 -2 -32 -11 -2 -0 -0 -18 -61 -32 -30 -33 -23 -37 -12 -11 -0 -0 -0 -0
-0 -0 -5 -1 -11 -21 -8 -2 -0 -0 -0 -6 -0 -17 -0 -0 -12 -5 -1 -1 -1 -4 -20 -18 -10 -17 -14 -0 -95 -0 -0 -0 -24 -0 -51 -9 -31 -0 -30 -0 -0 -0 -0
Wind_Speed
17 21 21 20 21 16 18 16 14 15 17 13 15 15 15 15 9 13 15 17 18 18 18 18 17 18 17 16 16 15 15 13 13 14 16 16 16 17 19 21 19 19 20
17 18 21 20 18 20 16 15 14 17 15 11 16 11 10 15 9 9 11 14 19 19 20 21 20 20 19 18 17 16 13 14 14 14 14 14 14 13 15 19 18 17 16
19 21 20 19 18 16 16 15 18 17 9 9 9 14 7 7 10 8 10 10 14 21 23 23 23 23 21 21 19 18 16 15 14 14 14 13 12 11 12 14 17 18 17
15 22 21 21 16 18 14 13 12 15 8 8 10 9 8 4 5 11 9 9 10 14 20 24 26 26 25 25 21 20 19 16 15 14 14 14 13 13 11 12 15 18 20
20 24 27 19 18 22 18 15 11 5 5 3 6 4 5 2 6 8 2 8 10 12 16 25 31 28 32 25 24 22 18 16 14 14 13 13 13 14 11 11 13 18 21
24 25 30 28 27 32 32 26 19 10 8 5 2 5 3 3 5 5 8 10 9 11 14 21 23 24 29 24 22 19 17 15 14 13 12 12 12 13 12 12 14 18 21
23 25 26 23 26 20 31 25 29 26 21 12 5 4 2 4 5 6 4 3 5 9 20 13 18 14 14 22 17 17 14 12 12 12 10 10 11 11 12 14 15 18 21
23 24 26 25 19 nan 5 10 16 15 16 13 5 21 4 7 14 10 7 5 6 6 19 19 29 7 5 8 19 20 16 12 10 8 8 9 10 9 11 12 14 17 20
18 20 19 19 14 13 18 4 nan 8 5 14 18 7 9 7 11 nan 9 9 5 9 18 20 8 15 9 9 17 22 21 16 12 8 8 9 11 9 9 10 13 17 18
15 14 17 13 13 20 5 14 12 4 14 19 11 2 9 nan nan nan 6 nan nan 25 nan 8 23 23 21 14 21 21 19 16 12 10 10 12 11 10 10 12 14 17 17
16 15 10 13 16 10 4 12 14 17 14 9 11 6 nan 8 15 21 7 8 12 nan nan 21 26 17 21 11 16 17 17 15 13 12 11 10 10 9 9 11 16 20 20
11 13 12 11 10 13 14 13 13 9 9 7 7 6 10 10 9 18 18 16 18 22 24 18 10 3 11 14 17 22 18 17 14 13 11 10 8 4 3 2 5 12 19
10 12 10 10 10 10 11 10 11 8 6 7 9 5 6 6 8 14 14 12 14 18 19 7 7 nan 10 9 7 19 19 20 19 15 10 7 5 5 4 5 5 5 8
10 11 9 10 9 9 7 7 9 7 4 6 9 8 8 5 6 8 11 10 8 6 8 7 9 6 5 12 12 15 13 16 16 nan 14 nan nan 8 6 6 6 6 5
12 8 9 10 7 8 7 9 9 9 8 9 9 9 13 11 10 9 8 10 9 9 7 4 9 14 10 11 12 6 14 15 16 19 19 nan nan nan nan 11 12 9 nan
13 17 13 11 8 9 11 11 11 11 9 12 13 14 14 11 13 9 10 10 7 6 10 13 10 11 12 6 15 11 10 16 12 17 20 nan nan nan nan nan nan 15 nan
16 14 13 12 13 15 15 14 14 13 16 14 13 12 12 10 12 10 12 10 11 12 12 13 12 13 17 11 12 11 8 17 11 17 21 nan nan nan nan nan nan nan nan
14 13 15 15 15 15 15 14 11 10 14 15 14 12 11 12 16 14 13 13 15 14 16 16 14 15 17 13 nan nan 10 20 13 20 22 nan nan nan nan nan nan nan nan
15 15 15 17 15 15 13 15 15 14 15 13 15 15 14 15 19 18 18 14 18 21 20 19 19 23 18 18 19 nan 16 14 19 18 20 nan nan nan nan nan nan nan nan
19 17 21 21 23 13 15 17 19 19 16 16 19 21 18 19 21 21 20 20 22 22 23 nan 22 17 18 20 20 19 19 16 nan nan nan 16 nan nan nan nan nan nan nan
23 23 21 22 24 22 27 28 26 24 22 22 23 23 23 31 30 29 28 26 27 24 23 21 20 20 24 23 25 22 20 25 24 20 22 nan nan nan nan nan nan nan nan
26 26 26 29 34 35 35 39 35 29 28 30 31 31 33 33 37 nan nan nan nan 28 25 22 23 20 21 21 26 24 28 25 25 24 29 nan nan nan nan nan nan nan nan
28 28 27 29 36 36 39 37 34 nan nan 33 35 38 35 35 32 38 nan nan nan nan nan nan 29 35 34 nan 32 29 33 30 31 30 33 33 nan nan nan nan nan nan nan
32 33 33 36 39 36 37 38 nan nan nan 30 33 41 43 39 37 35 33 38 nan nan nan nan 41 nan nan nan nan nan nan 35 35 38 nan 34 nan nan nan nan nan nan nan
36 38 44 40 nan nan nan nan nan nan nan nan nan nan nan nan nan nan nan nan nan nan nan nan nan nan nan nan nan nan nan nan 35 36 nan nan nan nan nan nan nan nan nan
41 49 48 nan nan nan nan nan nan nan nan nan nan nan nan nan nan nan nan nan nan nan nan nan nan nan nan nan nan nan nan nan nan nan nan nan nan nan nan nan nan nan nan
Wind_Direction
158 150 147 126 121 113 105 107 99 106 107 102 102 120 126 113 66 82 83 58 56 56 56 55 54 49 47 45 38 34 29 26 37 46 51 48 40 42 40 36 29 24 21
150 151 139 125 138 128 120 121 119 116 117 125 109 103 106 107 110 56 60 57 48 47 47 46 43 38 34 29 31 33 26 22 34 40 45 46 37 37 39 36 31 28 17
150 144 141 131 135 128 131 126 123 120 121 127 119 99 101 87 101 72 44 39 41 39 40 34 33 32 23 27 40 40 39 44 38 38 37 38 38 31 33 28 27 25 18
148 145 148 135 143 132 134 128 116 117 110 101 101 103 100 111 87 88 72 36 25 26 33 35 26 23 28 35 47 51 56 50 37 37 34 24 25 32 32 26 26 22 21
147 150 147 142 147 151 156 156 131 111 109 100 98 151 119 155 61 54 10 80 29 14 12 22 23 32 31 46 50 46 47 49 42 36 33 21 22 26 39 33 33 26 27
148 159 168 158 172 185 173 160 150 165 157 117 108 356 70 25 42 2 6 27 15 20 21 18 18 21 38 42 44 41 39 39 36 37 34 31 16 24 44 46 35 28 32
153 171 163 177 200 209 180 145 171 178 168 168 142 323 285 207 238 161 171 166 314 45 38 357 63 27 10 31 25 31 29 32 32 41 41 37 29 27 49 53 41 32 34
169 166 171 198 231 nan 207 196 206 188 154 119 224 182 342 282 247 244 191 132 129 188 177 40 17 346 64 0 3 5 357 13 30 47 42 47 56 47 58 62 44 38 37
174 178 171 200 167 159 190 209 nan 27 259 178 163 320 282 333 266 nan 114 118 248 212 145 134 277 282 70 38 337 343 340 352 8 19 17 33 52 51 45 49 45 43 43
163 173 170 192 162 231 334 149 266 252 263 255 150 150 268 nan nan nan 1 nan nan 254 nan 99 67 5 33 21 306 314 336 346 356 10 11 24 36 33 16 19 34 41 46
185 173 195 192 176 196 242 200 184 190 260 299 343 277 nan 350 345 301 294 17 4 nan nan 68 51 351 4 325 312 324 333 334 351 2 6 19 36 35 23 13 22 28 41
192 174 193 206 201 194 188 201 200 185 221 262 279 298 330 324 336 327 338 7 4 344 24 38 37 342 316 308 319 318 329 330 339 355 354 11 19 15 49 46 32 31 37
213 201 202 222 217 209 196 195 215 221 235 257 286 283 293 323 319 320 330 341 346 354 8 19 350 nan 295 307 293 320 343 334 336 345 329 327 329 297 313 311 319 347 15
220 237 228 224 228 229 222 234 255 262 290 282 309 300 286 288 299 307 325 310 321 338 344 356 317 279 301 321 340 344 342 337 329 nan 313 nan nan 292 273 253 250 256 294
216 260 248 250 223 252 244 234 252 242 248 272 279 306 309 311 315 293 288 293 302 305 304 274 283 312 328 328 328 329 332 331 336 319 309 nan nan nan nan 262 258 264 nan
223 219 233 220 227 245 258 261 265 276 268 266 270 272 272 276 266 257 269 268 228 302 297 286 289 290 298 297 306 290 293 319 321 303 302 nan nan nan nan nan nan 265 nan
228 230 234 237 243 255 255 266 266 260 267 273 268 262 276 278 274 267 261 274 276 265 271 277 280 273 274 275 258 248 298 299 298 293 298 nan nan nan nan nan nan nan nan
243 235 230 235 240 242 252 263 274 276 277 288 275 268 275 287 291 292 290 281 283 282 285 285 287 273 273 280 nan nan 249 294 282 286 289 nan nan nan nan nan nan nan nan
246 255 254 249 242 242 253 272 271 267 267 269 278 280 288 288 278 271 273 276 277 279 277 280 286 287 288 297 267 nan 281 275 273 286 281 nan nan nan nan nan nan nan nan
251 248 258 265 270 269 260 272 276 273 257 262 266 264 262 276 279 286 284 284 275 277 280 nan 288 294 293 306 293 297 296 291 nan nan nan 307 nan nan nan nan nan nan nan
257 260 258 263 268 263 254 251 268 275 270 262 265 272 272 264 267 267 273 277 285 283 276 275 275 284 289 285 292 287 291 291 297 296 296 nan nan nan nan nan nan nan nan
252 254 248 246 254 259 252 252 251 253 256 263 261 259 264 270 273 nan nan nan nan 273 279 275 272 279 280 277 273 279 287 292 293 293 296 nan nan nan nan nan nan nan nan
256 255 258 261 262 259 252 250 249 nan nan 267 265 259 259 263 263 275 nan nan nan nan nan nan 268 270 272 nan 278 279 280 277 282 284 287 289 nan nan nan nan nan nan nan
253 256 259 260 265 254 247 253 nan nan nan 269 263 254 257 257 256 249 255 261 nan nan nan nan 268 nan nan nan nan nan nan 274 277 277 nan 280 nan nan nan nan nan nan nan
256 257 256 259 nan nan nan nan nan nan nan nan nan nan nan nan nan nan nan nan nan nan nan nan nan nan nan nan nan nan nan nan 268 279 nan nan nan nan nan nan nan nan nan
247 252 256 nan nan nan nan nan nan nan nan nan nan nan nan nan nan nan nan nan nan nan nan nan nan nan nan nan nan nan nan nan nan nan nan nan nan nan nan nan nan nan nan